Location: Bastrop State Park
(30.1090°N, 97.2819°W)
Time: 06:28:58
(UTC-06:00)

Daily predictions for brighter satellites

Satellite Brightness Start Highest point End
(mag) Time Altitude Azimuth Time Altitude Azimuth Time Altitude Azimuth
Cosmos 2218 Rocket 4.0 17:46:23 10° N 17:52:38 72° E 17:58:47 10° SSE
Meteor 1-18 Rocket 4.4 17:51:09 10° S 17:56:45 83° W 18:02:30 10° N
OTV 4 1.6 17:56:29 10° WNW 17:59:23 45° SSW 18:02:15 10° SE
Cosmos 1346 Rocket 2.8 17:58:00 10° S 18:01:50 55° E 18:05:38 10° NNE
Cosmos 2297 3.8 17:56:50 10° S 18:02:23 63° ESE 18:07:57 10° NNE
BREEZE M DEB (TANK) 4.1 17:49:58 10° SW 18:04:31 65° NW 18:08:27 10° NE
SJ-7 4.5 18:02:10 10° SSE 18:06:21 68° ENE 18:10:35 10° N
NOSS 2-1 (E) 3.4 18:04:12 10° SSW 18:07:57 54° ESE 18:11:53 10° NE
Cosmos 1544 Rocket 4.3 18:09:28 10° NNW 18:13:51 57° W 18:18:12 10° S
Cosmos 2278 Rocket 3.4 18:08:58 10° SW 18:14:17 43° WNW 18:19:38 10° N
SMAP 3.1 18:09:52 10° S 18:14:31 84° W 18:19:10 10° NNW
COSMO-SKYMED 1 2.7 18:13:30 10° NNE 18:17:46 56° E 18:22:01 10° S
CZ-4 R/B 4.4 18:15:16 10° SSE 18:19:23 75° ENE 18:23:32 10° N
SL-24 DEB 4.2 18:18:46 10° N 18:23:29 90° NE 18:28:09 10° S
Intercosmos 25 3.9 18:20:46 10° NNE 18:23:34 28° E 18:26:47 10° SE
CZ-3B DEB 4.0 18:20:41 10° WNW 18:23:40 18° NNW 18:28:49 10° NNE
Cosmos 2056 Rocket 4.1 18:23:47 10° SSE 18:28:41 36° E 18:32:41 14° NE
Genesis I 3.6 18:25:21 10° NNW 18:29:04 40° ENE 18:32:44 10° SE
Cosmos 1025 Rocket 3.4 18:28:29 10° SSE 18:32:34 40° E 18:36:25 11° NNE
GRACE-2 3.7 18:31:32 10° S 18:34:18 75° E 18:37:05 10° N
GRACE-1 3.7 18:31:58 10° S 18:34:44 78° E 18:37:30 10° N
Cosmos 921 Rocket 3.0 18:30:55 10° SSW 18:35:07 78° WNW 18:39:25 10° N
YAOGAN 1 3.8 18:32:55 10° S 18:37:03 45° W 18:41:12 10° NNW
Nadezhda 3 Rocket 4.0 18:31:18 10° S 18:37:30 85° W 18:43:46 10° N
CZ-4 R/B 3.7 18:33:56 10° SSW 18:37:32 28° W 18:41:07 10° NW
Meteor 1-19 Rocket 4.2 18:33:50 10° S 18:39:34 78° E 18:45:25 10° N
Cosmos 1624 Rocket 4.1 18:37:01 10° S 18:42:03 55° ESE 18:46:00 16° NNE
Cosmos 1833 Rocket 3.1 18:37:43 10° N 18:42:55 37° ENE 18:48:03 10° SE
MSX 4.1 18:37:50 10° S 18:43:34 73° WSW 18:49:18 10° NNW
Cosmos 1484 Rocket 2.6 18:40:03 10° SSE 18:43:49 87° ENE 18:47:33 10° N
Cosmos 1743 2.7 18:40:26 10° N 18:44:13 53° E 18:47:58 10° SSE
Cosmos 1975 3.9 18:40:31 10° NNW 18:44:23 46° W 18:48:14 10° SSW
Cosmos 2082 Rocket 2.4 18:40:22 10° N 18:45:50 47° ENE 18:51:17 10° SE
Cosmos 1371 Rocket 4.0 18:41:44 10° S 18:47:04 80° ESE 18:52:08 12° NNE
COSMOS 2487 2.4 18:43:34 10° NNW 18:47:10 89° WSW 18:50:44 10° SSE
CZ-2C R/B 4.2 18:43:57 10° SSW 18:48:24 34° W 18:53:01 10° NNW
Cosmos 1500 4.1 18:44:57 10° NNW 18:48:42 51° W 18:52:26 10° S
Tiangong 1 3.6 18:50:20 10° NNW 18:51:17 11° NNW 18:51:36 11° N
Meteor 2-21 Rocket 4.4 18:46:15 10° N 18:52:27 85° E 18:58:34 10° S
Meteor 1-28 Rocket 3.1 18:50:54 15° N 18:54:03 87° WNW 18:57:49 10° SSW
Meteor 2-16 Rocket 4.3 18:48:56 10° N 18:55:00 72° E 19:01:03 10° SSE
Cosmos 1727 Rocket 4.5 18:53:29 10° SSE 18:59:03 36° E 19:00:29 32° ENE
ATLAS 2AS CENTAUR R/B 4.0 18:51:53 10° NW 18:59:19 47° WSW 19:06:10 10° S
Meteor 1-23 Rocket 4.1 19:00:27 10° S 19:06:11 82° E 19:11:35 12° N
Delta 2 Rocket 4.1 19:06:44 10° WNW 19:10:21 37° N 19:10:22 37° N
Meteor 2-4 Rocket 3.9 19:10:13 10° SSW 19:15:34 67° W 19:20:54 10° N
Cosmos 1892 Rocket 3.3 19:12:26 10° S 19:16:46 79° E 19:17:05 73° NE
Cosmos 1452 Rocket 4.1 19:12:58 10° S 19:16:50 38° SE 19:16:50 38° SE
Cosmos 2369 Rocket 3.0 19:14:45 10° S 19:18:34 32° SE 19:18:34 32° SE
Meteor 2-9 Rocket 3.9 19:17:43 10° N 19:23:07 77° E 19:28:24 10° SSE
Cosmos 1934 Rocket 4.0 19:29:14 10° N 19:35:28 78° W 19:41:46 10° S
Cosmos 1339 Rocket 4.3 19:32:47 10° S 19:38:34 70° ESE 19:38:34 70° ESE
ATLAS 3B CENTAUR R/B 3.0 19:53:13 10° W 20:08:29 74° SSW 20:08:44 73° S
FALCON 9 R/B 4.4 20:58:19 10° WNW 21:04:45 30° WNW 21:04:45 30° WNW
